Location: De Greiden
(52.9496°N, 5.9137°E)
Time: 02:06:32
(UTC+00:00)

ARGOS - Pass Details

Date: 24 January 2021
Orbit: 821 x 834 km, 98.4° (Epoch: 26 February)

Event Time Altitude Azimuth Distance (km) Brightness Sun altitude
Rises 17:57:12 0° 149° (SSE) 3,346 6.1 -16.4°
Reaches altitude 10° 17:59:33 10° 146° (SE) 2,419 5.3 -16.7°
Maximum altitude 18:04:48 59° 68° (ENE) 952 3.1 -17.5°
Drops below altitude 10° 18:10:06 10° 351° (N) 2,443 5.6 -18.3°
Sets 18:12:30 0° 347° (NNW) 3,382 6.4 -18.6°
